K1FSY-9 Weather Reports


time (UTC)temp
F
wind
direction
speed
knots
gust
knots
rain 1hr
in
rain 24hr
in
rain mn
in
humidity
%
barometer
mb
20260506171227 62 222 0.9 6.1 0.00 0.01 0.01 82 1005.7
20260506161222 66 196 1.7 6.1 0.00 0.00 0.00 75 1005.7
20260506154221 66 180 1.7 5.2 0.00 0.00 0.00 73 1005.7
20260506141220 65 212 0.9 6.1 0.00 0.00 0.00 76 1006.4
20260506131210 62 216 0.9 6.1 0.00 0.00 0.00 82 1006.4
20260506124206 60 203 1.7 4.3 0.00 0.00 0.00 85 1006.7
20260506121313 59 199 0.9 4.3 0.00 0.00 0.00 87 1007.4
20260506121238 59 199 0.9 4.3 0.00 0.00 0.00 87 1007.4
20260506114204 57 227 1.7 4.3 0.00 0.00 0.00 89 1007.4
20260506111204 56 208 0.9 4.3 0.00 0.00 0.00 91 1007.4
20260506104201 54 242 0.9 2.6 0.00 0.00 0.00 91 1007.7
20260506101156 54 216 0.9 3.5 0.00 0.00 0.00 90 1007.7
20260506094204 54 224 0.9 2.6 0.00 0.00 0.00 89 1007.4
20260506091152 55 246 0.9 4.3 0.00 0.00 0.00 89 1007.4
20260506084148 55 246 0.9 3.5 0.00 0.00 0.00 87 1007.4
20260506071145 57 240 1.7 4.3 0.00 0.00 0.00 84 1007.4
20260506061144 58 233 1.7 6.1 0.00 0.00 0.00 79 1006.7
20260506041127 60 221 1.7 5.2 0.00 0.00 0.00 74 1007.4
20260506034124 60 255 0.9 5.2 0.00 0.00 0.00 74 1007.4
20260506031123 60 234 0.9 4.3 0.00 0.00 0.00 73 1007.4
20260506024120 61 220 1.7 5.2 0.00 0.00 0.00 71 1007.4
20260506021119 62 215 1.7 5.2 0.00 0.00 0.00 68 1007.4
20260506004103 64 221 1.7 4.3 0.00 0.00 0.00 65 1006.0
20260506001101 65 208 1.7 4.3 0.00 0.00 0.00 63 1005.4
20260505234059 66 212 1.7 5.2 0.00 0.00 0.00 62 1005.4
20260505231100 68 212 1.7 5.2 0.00 0.00 0.00 58 1004.7
20260505224058 70 216 2.6 7.0 0.00 0.00 0.00 55 1004.0
20260505214054 74 223 1.7 7.8 0.00 0.00 0.00 51 1004.0
20260505211049 75 192 1.7 7.0 0.00 0.00 0.00 48 1003.3
20260505204044 77 185 2.6 7.8 0.00 0.00 0.00 47 1003.3
20260505201039 79 179 2.6 10.4 0.00 0.00 0.00 44 1003.0
20260505194036 81 201 2.6 7.8 0.00 0.00 0.00 42 1003.0
20260505191035 81 213 2.6 7.8 0.00 0.00 0.00 42 1002.7
20260505174024 80 192 2.6 8.7 0.00 0.00 0.00 47 1003.7